Location: Newark
(43.0000°N, 1.6781°W)
Time: 22:35:38
(UTC+00:00)

N. Korean satellite - Pass Details

Date: 05 December 2021
Orbit: 447 x 491 km, 97.3° (Epoch: 21 January)

Event Time Altitude Azimuth Distance (km) Brightness Sun altitude
Rises 04:23:10 0° 32° (NNE) 2,460 10.5 -32.0°
Reaches altitude 10° 04:26:03 10° 60° (ENE) 1,579 9.8 -31.5°
Maximum altitude 04:27:49 14° 92° (E) 1,373 9.6 -31.1°
Drops below altitude 10° 04:29:34 10° 124° (ESE) 1,571 9.8 -30.8°
Sets 04:32:25 0° 152° (SSE) 2,438 10.5 -30.3°
